Sierra Vista, AZ

1:59 AM MST on April 29, 2017 (GMT -0700)
Sierra Vista Municipal-Libby Army Air Field

Weather History for KFHU - June, 2012

Change the Weather History Date:

Tuesday, June 12, 2012

  Actual Average Record
Temperature  
Mean Temperature 82 °F -  
Max Temperature 95 °F 88 °F 100 °F (2013)
Min Temperature 70 °F 66 °F 55 °F (1988)
Cooling Degree Days 18    
Growing Degree Days 32 (Base 50)    
Moisture  
Dew Point 23 °F    
Average Humidity 12    
Maximum Humidity 19    
Minimum Humidity 6    
Precipitation  
Precipitation 0.00 in - - ()
Sea Level Pressure  
Sea Level Pressure 29.86 in    
Wind  
Wind Speed 8 mph (WSW)    
Max Wind Speed 13 mph    
Max Gust Speed 18 mph    
Visibility 10 miles    
Events      
Averages and records for this station are not official NWS values.
T = Trace of Precipitation, MM = Missing Value Source: NWS Daily Summary

Daily Weather History Graph

Daily Weather History Graph

Search for Another Location

Airport or City:

Trip Planner

Search our weather history database for the weather conditions in past years. The results will help you decide how hot, cold, wet, or windy it might be!

Date:

Astronomy

Jun. 12, 2012 Rise Set
Actual Time 5:15 AM MST 7:27 PM MST
Civil Twilight 4:47 AM MST 7:55 PM MST
Nautical Twilight 4:13 AM MST 8:29 PM MST
Astronomical Twilight 3:36 AM MST 9:06 PM MST
Moon 12:44 AM MST (6/12) 1:36 PM MST (6/12)
Length of Visible Light 15h 07m
Length of Day
14h 11m
Last Quarter, 37% of the Moon is Illuminated
Jun 12
Last Quarter
Jun 19
New
Jun 26
First Quarter
Jul 3
Full
Jul 10
Last Quarter

Hourly Weather History & Observations

Time (MST) Temp. Dew Point Humidity Pressure Visibility Wind Dir Wind Speed Gust Speed Precip Events Conditions
12:56 AM 75.0 °F 28.9 °F 18% 29.91 in 10.0 mi SW 10.4 mph - N/A   Clear
1:56 AM 73.9 °F 26.1 °F 17% 29.90 in 10.0 mi WSW 10.4 mph - N/A   Clear
2:56 AM 73.0 °F 25.0 °F 17% 29.90 in 10.0 mi West 12.7 mph - N/A   Clear
3:56 AM 72.0 °F 25.0 °F 17% 29.90 in 10.0 mi WSW 11.5 mph - N/A   Clear
4:56 AM 70.0 °F 25.0 °F 18% 29.91 in 10.0 mi West 9.2 mph - N/A   Clear
5:55 AM 71.6 °F 26.6 °F 19% 29.92 in 10.0 mi Variable 3.5 mph - N/A   Mostly Cloudy
6:55 AM 73.4 °F 28.4 °F 19% 29.94 in 10.0 mi Variable 2.3 mph - N/A   Mostly Cloudy
7:55 AM 78.8 °F 26.6 °F 15% 29.94 in 10.0 mi Calm Calm - N/A   Mostly Cloudy
8:55 AM 82.4 °F 26.6 °F 13% 29.93 in 10.0 mi Variable 3.5 mph - N/A   Mostly Cloudy
9:55 AM 86.0 °F 24.8 °F 11% 29.92 in 10.0 mi Variable 2.3 mph - N/A   Mostly Cloudy
10:55 AM 87.8 °F 24.8 °F 10% 29.91 in 10.0 mi East 8.1 mph - N/A   Mostly Cloudy
11:55 AM 89.6 °F 23.0 °F 9% 29.89 in 10.0 mi SE 10.4 mph - N/A   Mostly Cloudy
12:55 PM 91.4 °F 21.2 °F 8% 29.86 in 10.0 mi Variable 5.8 mph - N/A   Mostly Cloudy
1:55 PM 95.0 °F 19.4 °F 6% 29.82 in 10.0 mi NE 8.1 mph 16.1 mph N/A   Mostly Cloudy
2:55 PM 93.2 °F 19.4 °F 7% 29.81 in 10.0 mi Variable 6.9 mph - N/A   Mostly Cloudy
3:55 PM 95.0 °F 17.6 °F 6% 29.80 in 10.0 mi SE 4.6 mph - N/A   Mostly Cloudy
4:55 PM 95.0 °F 17.6 °F 6% 29.78 in 10.0 mi WSW 6.9 mph 18.4 mph N/A   Mostly Cloudy
5:55 PM 95.0 °F 17.6 °F 6% 29.78 in 10.0 mi West 4.6 mph - N/A   Mostly Cloudy
6:55 PM 91.4 °F 19.4 °F 7% 29.78 in 9.0 mi WSW 10.4 mph - N/A   Mostly Cloudy
7:55 PM 87.8 °F 19.4 °F 8% 29.81 in 10.0 mi West 11.5 mph - N/A   Mostly Cloudy
8:55 PM 84.2 °F 21.2 °F 10% 29.82 in 9.0 mi West 11.5 mph - N/A   Scattered Clouds
9:55 PM 82.4 °F 21.2 °F 10% 29.83 in 10.0 mi WSW 8.1 mph - N/A   Scattered Clouds
10:56 PM 80.1 °F 21.9 °F 12% 29.84 in 10.0 mi WSW 9.2 mph - N/A   Clear
11:56 PM 78.1 °F 23.0 °F 13% 29.82 in 10.0 mi WSW 11.5 mph - N/A   Clear